FENGYUN 1C DEB

Satellite information

Favourite Embed

Satellite Type and Status

DEBRISIN ORBIT

Key statistics

Satellite FENGYUN 1C DEB at a glance.

Uptime

9555

Days in orbit

Revolutions

≈ 14.2

Per day

Orbit

SSO

Sun Synchronous Orbit

Inclination

98.6

Latest

Satellite identification and parameters

Extended collection of information and parameters for FENGYUN 1C DEB.

Object identification

Identified? True

Debris? True

Object name: FENGYUN 1C DEB

International designator: 1999-025ASX

Object number (NORAD): 30737

Object ID (CCSDS): 30737

Country: PEOPLES REPUBLIC OF CHINA (PRC)

Current information (Y/N): Y

RCS size: SMALL

Orbital parameters

Period: 101.552 minutes

Inclination: 98.5608 deg

SMA: 7210.278 km

Apoapsis: 848.288 km

Periapsis: 815.998 km

RAAN: 174.2741 deg

Eccentricy: 0.0022392

Argument of periapsis: 233.9414 deg

Mean anomaly: 277.4776 deg

Mean motion: 14.17995126 rev/day

Mean motion (dot): 0.00000427 rev/day2

B* drag term: 0.00022877 1/REarth

Two-line elements (TLE)

Creation date: July 5, 2025, 5:45 p.m.

Reference frame: TEME

Reference center: EARTH

Epoch: July 5, 2025, 11:02 a.m. UTC

TLE line 0: 0 FENGYUN 1C DEB

TLE line 1: 1 30737U 99025ASX 25186.46014640 .00000427 00000-0 22877-3 0 9994

TLE line 2: 2 30737 98.5608 174.2741 0022392 233.9414 277.4776 14.17995126947610

Live tracking on map

Real-time ground track for satellite FENGYUN 1C DEB.

In-orbit conjunctions

A list of the most updated potential collisions computed for object FENGYUN 1C DEB.

Target Orbit TCA Probability of collision Miss distance Type
DMSP 5D-2 F11 DEB SSO 2024-09-30 07:15:26 0.0002137297 119.0 (m) DEBRIS
CZ-6A DEB LEO 2024-09-20 21:04:19 0.0001197689 538.0 (m) DEBRIS
NOAA 11 DEB SSO 2024-07-03 00:15:39 0.000173736 30.0 (m) DEBRIS

Associated space launch

Chinese polar orbiting meteorological satellite

FENGYUN 1C DEB was lifted into orbit during the mission ‘Long March 4B | Feng Yun 1C’, on board a Long March 4B space rocket.

The launch took place on May 10, 1999, 1:33 a.m. from Launch Complex 7.

For more information about the launch, click the button.

Launch to space Long March 4B | Feng Yun 1C
Long March 4B | Feng Yun 1C

Agency: N/A

Status: Launch Successful

Launch date: May 10, 1999, 1:33 a.m. UTC

Rocket: Long March 4B

Launch pad: Launch Complex 7

Location: Taiyuan Satellite Launch Center, People's Republic of China

...

Latest news about this satellite

There are no fresh news available about this satellite. Check back as we update our databases every day.


Newsletter sign-up

Weekly statistics, charts and insights to help you stay on top of the space industry.